Content
SEND FEEDBACK

Daily
Averages
Monthly
Summary
Mexico

COZUMEL, QUINTANA ROO


Home > North America > Mexico > Quintana Roo
Elevation: 15 feet     Latitude: 20 31N     Longitude: 086 56W

WEATHER
 
SELECT A DAY
Number of Records: 123,040;   Date Range: 1/1/95 - 4/15/14
 
SHARE

PRINT THIS DATA

[ ← Previous Day ]
WEATHER ALMANAC - DECEMBER 8, 2013
[ Next Day → ]
[ °C ]   °F
Weather ElementAverageHighLow
Temperature72.7 °F80.6 °F (9:41 am)64.4 °F (10:40 pm)
Dewpoint68.3 °F69.8 °F (7:48 am)64.4 °F (10:40 pm)
Humidity87.5 %100 % (2:33 am)70 % (9:41 am)
Barometer30.04 in30.11 in (8:40 am)29.99 in (3:47 pm)
Wind Speed5.2 mph15 mph (10:46 am)
Weather ElementAverage
Visibility7.5 mi
Wind DirectionENE (61.4 °)

Weather ElementTotal
Precipitation---
Cooling Degree Days7.5 (Base 65)
Growing Degree Days22.5 (Base 50)
Averaged from 22 records on December 8, 2013
WEATHER CONDITIONS BREAKOUT
WIND DIRECTION BREAKOUT
WEATHER BY HOUR - DECEMBER 8, 2013
[ °C ]   °F
Local TimeTemperatureDewpointHumidityBarometerVisibilityWind DirectionWind SpeedGust SpeedPrecipitationEventsConditions
2:33 AM66.2 °F66.2 °F100 %30.01 in7.0 miCalmClear
3:46 AM69.8 °F68.0 °F94 %30.02 in7.0 miEast (100°)4.6 mphPartly Cloudy
4:42 AM68.0 °F68.0 °F100 %30.02 in7.0 miCalmPartly Cloudy
5:45 AM66.2 °F66.2 °F100 %30.03 in7.0 miCalmPartly Cloudy
6:46 AM68.0 °F68.0 °F100 %30.06 in7.0 miEast (80°)4.6 mphScattered Clouds
7:48 AM73.4 °F69.8 °F88 %30.07 in8.0 miESE (110°)8.1 mphPartly Cloudy
8:40 AM78.8 °F69.8 °F74 %30.11 in8.0 miEast (100°)8.1 mphPartly Cloudy
9:41 AM80.6 °F69.8 °F70 %30.08 in8.0 miESE (110°)13.8 mphScattered Clouds
10:46 AM80.6 °F69.8 °F70 %30.08 in8.0 miESE (110°)15.0 mphScattered Clouds
11:48 AM80.6 °F69.8 °F70 %30.04 in8.0 miEast (80°)10.4 mphScattered Clouds
12:45 PM80.6 °F69.8 °F70 %30.02 in8.0 miESE (110°)13.8 mphMostly Cloudy
1:46 PM80.6 °F69.8 °F70 %30.00 in8.0 miSE (130°)11.5 mphScattered Clouds
2:45 PM80.6 °F69.8 °F70 %30.02 in8.0 miEast (90°)8.1 mphMostly Cloudy
3:47 PM77.0 °F69.8 °F78 %29.99 in8.0 miEast (100°)8.1 mphScattered Clouds
4:48 PM75.2 °F69.8 °F83 %30.00 in8.0 miESE (120°)4.6 mphScattered Clouds
5:41 PM71.6 °F69.8 °F94 %30.00 in7.0 miESE (110°)3.5 mphPartly Cloudy
6:54 PM69.8 °F68.0 °F94 %30.02 in7.0 miCalmPartly Cloudy
7:55 PM68.0 °F68.0 °F100 %30.04 in7.0 miCalmClear
8:44 PM68.0 °F68.0 °F100 %30.08 in7.0 miCalmClear
9:44 PM66.2 °F66.2 °F100 %30.05 in7.0 miCalmClear
10:40 PM64.4 °F64.4 °F100 %30.05 in7.0 miCalmClear
11:48 PM64.4 °F64.4 °F100 %30.03 in7.0 miCalmClear
Hourly data recorded from MMCZ, located 0.42 miles away from Cozumel, Quintana Roo







STORIES FROM OUR PARTNERS